Flag for Canada Weather past 2 weeks in Medicine Hat, Alberta, Canada

Now
63 °F

Broken clouds.


Feels Like: 63 °F
Forecast: 54 / 74 °F
Wind: 15 mph from Northwest

Location: Medicine Hat

Current Time: Jul 26, 2014 at 12:14:47 PM

Latest Report: Jul 26, 2014 at 11:00 AM


Visibility: 30 mi

Pressure: 30.12 "Hg

Humidity: 68%

Dew point: 52 °F

Location of Medicine HatLocation

Historic Weather in Medicine Hat — Graph

°F

Medicine Hat temperature yesterday

Maximum temperature yesterday: 72 °F (at 12:00 PM)
Minimum temperature yesterday: 52 °F (at 1:00 AM)
Average temperature yesterday: 59 °F

Past Weeks' High & Low Weather Summary

 TemperatureHumidityPressure
High93 °F (Jul 17, 4:00 PM)94% (Jul 12, 4:00 AM)30.32 "Hg (Jul 12, 4:00 AM)
Low50 °F (Jul 14, 6:00 AM)21% (Jul 14, 6:00 PM)29.49 "Hg (Jul 17, 7:00 PM)
Average68 °F59%29.94 "Hg
* Reported Jul 11 11:00 AM — Jul 26 11:00 AM, Medicine Hat, Weather by CustomWeather, © 2014

Note: Actual official high and low records may vary slightly from our data, if they occured in-between our weather recording intervals... More about our weather records

Advertising

Medicine Hat weather history for previous 24 hours

 ConditionsComfort  
Time TempWeatherWind HumidityBarometerVisibility
11:00 AM
Jul 26
63 °FBroken clouds.15 mph68%30.12 "Hg30 mi
10:00 AM59 °FPartly sunny.13 mph82%30.11 "Hg30 mi
9:00 AM57 °FPartly sunny.13 mph82%30.11 "Hg30 mi
8:00 AM55 °FOvercast.10 mph88%30.10 "Hg30 mi
7:00 AM55 °FOvercast.8 mph88%30.07 "Hg30 mi
6:00 AM55 °FMostly cloudy.8 mph88%30.06 "Hg9 mi
5:00 AM55 °FOvercast.8 mph88%30.04 "Hg9 mi
4:00 AM55 °FOvercast.7 mph88%30.02 "Hg9 mi
3:00 AM55 °FOvercast.10 mph88%30.00 "Hg9 mi
2:00 AM55 °FOvercast.14 mph88%29.96 "Hg9 mi
1:00 AM55 °FOvercast.16 mph88%29.95 "Hg9 mi
12:00 AM55 °FLight rain. Mostly cloudy.18 mph88%29.95 "Hg7 mi
11:00 PM
Jul 25
55 °FLight rain. Overcast.17 mph88%29.94 "Hg9 mi
10:00 PM57 °FLight rain. Overcast.24 mph82%29.91 "Hg9 mi
9:00 PM57 °FLight rain. Overcast.29 mph82%29.89 "Hg30 mi
8:00 PM57 °FLight rain. Overcast.30 mph82%29.86 "Hg30 mi
7:00 PM59 °FLight rain. Overcast.31 mph77%29.84 "Hg30 mi
6:00 PM57 °FLight rain. Overcast.26 mph88%29.84 "Hg30 mi
5:00 PM57 °FLight rain. Overcast.31 mph82%29.82 "Hg30 mi
4:00 PM59 °FOvercast.26 mph77%29.81 "Hg30 mi
3:45 PM59 °FOvercast.25 mph77%29.80 "Hg30 mi
3:00 PM61 °FOvercast.38 mph68%29.80 "Hg30 mi
2:00 PM64 °FOvercast.22 mph49%29.75 "Hg30 mi
1:00 PM68 °FOvercast.16 mph43%29.72 "Hg30 mi
12:00 PM72 °FPartly sunny.24 mph36%29.70 "Hg30 mi
Weather by CustomWeather, © 2014

See weather overviewHow to use our weather pages